Simultaneous Nadir Overpasses (SNOs) Predictions

Prediction of SNOs between GOES-14 and NOAA-20 Satellite Orbit:

Table of predicted SNOs for the next 14.0 days since TLE Epoch: 10/21/2023
Index Date Time (GOES-14) GOES-14 Lat,Lon NOAA-20 Lat,Lon Distance(km) Time Diff (sec)
1 10/21/2023 20:29:59 -0.18,-108.55 0.39,-105.92 299.27 80
2 10/23/2023 08:49:04 0.15,-108.61 0.75,-111.18 293.43 80
3 10/24/2023 08:32:58 0.16,-108.61 -0.27,-106.65 224.08 80
4 10/25/2023 20:52:12 -0.13,-108.54 -0.87,-111.95 387.56 80
5 10/26/2023 20:36:05 -0.14,-108.55 0.10,-107.40 130.24 80
6 10/28/2023 08:55:10 0.11,-108.62 1.03,-112.67 461.80 80
7 10/29/2023 08:39:04 0.13,-108.62 -0.00,-108.13 56.01 80
8 10/31/2023 20:39:29 -0.12,-108.55 -0.20,-108.88 38.02 80
9 11/01/2023 20:23:23 -0.13,-108.54 0.83,-104.34 479.54 80
10 11/03/2023 08:42:27 0.10,-108.61 0.34,-109.60 112.91 80
